Time,TemperatureF,DewpointF,PressureIn,WindDirection,WindDirectionDegrees,WindSpeedMPH,WindSpeedGustMPH,Humidity,HourlyPrecipIn,Conditions,Clouds,dailyrainin,SoftwareType,DateUTC
2013-03-14 00:01:00,57.0,21.0,30.00,WNW,295,2.0,-999.0,24,-99.99,,,-99.99,,2013-03-14 07:01:00,
2013-03-14 00:11:00,57.0,21.0,30.00,WNW,295,2.0,-999.0,24,-99.99,,,-99.99,,2013-03-14 07:11:00,
2013-03-14 00:22:00,56.0,22.0,30.01,WNW,295,1.0,-999.0,26,-99.99,,,-99.99,,2013-03-14 07:22:00,
2013-03-14 00:32:00,55.0,21.0,30.01,WNW,295,2.0,-999.0,26,-99.99,,,-99.99,,2013-03-14 07:32:00,
2013-03-14 00:42:00,55.0,21.0,30.01,WNW,295,2.0,-999.0,26,-99.99,,,-99.99,,2013-03-14 07:42:00,
2013-03-14 00:52:00,55.0,21.0,30.01,WNW,295,1.0,-999.0,26,-99.99,,,-99.99,,2013-03-14 07:52:00,
2013-03-14 01:02:00,56.0,22.0,30.01,WNW,295,1.0,-999.0,26,-99.99,,,-99.99,,2013-03-14 08:02:00,
2013-03-14 01:11:00,56.0,22.0,30.01,WNW,295,1.0,-999.0,26,-99.99,,,-99.99,,2013-03-14 08:11:00,
2013-03-14 01:21:00,52.0,22.0,30.00,WNW,295,0.0,-999.0,31,-99.99,,,-99.99,,2013-03-14 08:21:00,
2013-03-14 01:31:00,52.0,22.0,30.00,WNW,295,0.0,-999.0,30,-99.99,,,-99.99,,2013-03-14 08:31:00,
2013-03-14 01:41:00,52.0,22.0,30.00,WNW,295,0.0,-999.0,30,-99.99,,,-99.99,,2013-03-14 08:41:00,
2013-03-14 01:51:00,50.0,21.0,30.01,WNW,295,0.0,-999.0,32,-99.99,,,-99.99,,2013-03-14 08:51:00,
2013-03-14 02:01:00,49.0,21.0,30.00,WNW,295,0.0,-999.0,33,-99.99,,,-99.99,,2013-03-14 09:01:00,
2013-03-14 02:12:00,49.0,21.0,30.00,WNW,295,0.0,-999.0,33,-99.99,,,-99.99,,2013-03-14 09:12:00,
2013-03-14 02:22:00,49.0,23.0,29.99,WNW,295,0.0,-999.0,35,-99.99,,,-99.99,,2013-03-14 09:22:00,
2013-03-14 02:32:00,49.0,20.0,29.99,WNW,295,0.0,-999.0,32,-99.99,,,-99.99,,2013-03-14 09:32:00,
2013-03-14 02:42:00,49.0,20.0,29.99,WNW,295,0.0,-999.0,32,-99.99,,,-99.99,,2013-03-14 09:42:00,
2013-03-14 02:52:00,49.0,21.0,29.99,WNW,295,0.0,-999.0,33,-99.99,,,-99.99,,2013-03-14 09:52:00,
2013-03-14 03:02:00,48.0,22.0,29.99,WNW,295,0.0,-999.0,35,-99.99,,,-99.99,,2013-03-14 10:02:00,
2013-03-14 03:12:00,48.0,22.0,29.99,WNW,295,0.0,-999.0,35,-99.99,,,-99.99,,2013-03-14 10:12:00,
2013-03-14 03:22:00,46.0,24.0,29.99,WNW,295,0.0,-999.0,42,-99.99,,,-99.99,,2013-03-14 10:22:00,
2013-03-14 03:32:00,45.0,24.0,29.99,WNW,295,0.0,-999.0,43,-99.99,,,-99.99,,2013-03-14 10:32:00,
2013-03-14 03:42:00,45.0,24.0,29.99,WNW,295,0.0,-999.0,43,-99.99,,,-99.99,,2013-03-14 10:42:00,
2013-03-14 03:52:00,45.0,25.0,29.99,WNW,295,0.0,-999.0,45,-99.99,,,-99.99,,2013-03-14 10:52:00,
2013-03-14 04:01:00,46.0,22.0,29.99,WNW,295,0.0,-999.0,39,-99.99,,,-99.99,,2013-03-14 11:01:00,
2013-03-14 04:12:00,46.0,22.0,29.99,WNW,295,0.0,-999.0,39,-99.99,,,-99.99,,2013-03-14 11:12:00,
2013-03-14 04:22:00,46.0,23.0,29.99,WNW,295,0.0,-999.0,40,-99.99,,,-99.99,,2013-03-14 11:22:00,
2013-03-14 04:32:00,45.0,23.0,29.99,WNW,295,0.0,-999.0,41,-99.99,,,-99.99,,2013-03-14 11:32:00,
2013-03-14 04:42:00,45.0,23.0,29.99,WNW,295,0.0,-999.0,41,-99.99,,,-99.99,,2013-03-14 11:42:00,
2013-03-14 04:52:00,45.0,24.0,29.99,WNW,295,0.0,-999.0,43,-99.99,,,-99.99,,2013-03-14 11:52:00,
2013-03-14 05:01:00,47.0,21.0,30.00,WNW,295,1.0,-999.0,36,-99.99,,,-99.99,,2013-03-14 12:01:00,
2013-03-14 05:12:00,47.0,21.0,30.00,WNW,295,1.0,-999.0,36,-99.99,,,-99.99,,2013-03-14 12:12:00,
2013-03-14 05:21:00,47.0,22.0,30.00,WNW,295,2.0,-999.0,37,-99.99,,,-99.99,,2013-03-14 12:21:00,
2013-03-14 05:32:00,48.0,22.0,30.00,WNW,295,1.0,-999.0,35,-99.99,,,-99.99,,2013-03-14 12:32:00,
2013-03-14 05:42:00,48.0,22.0,30.00,WNW,295,1.0,-999.0,35,-99.99,,,-99.99,,2013-03-14 12:42:00,
2013-03-14 05:52:00,46.0,22.0,30.00,WNW,295,0.0,-999.0,39,-99.99,,,-99.99,,2013-03-14 12:52:00,
2013-03-14 06:02:00,46.0,22.0,30.00,WNW,295,0.0,-999.0,38,-99.99,,,-99.99,,2013-03-14 13:02:00,
2013-03-14 06:12:00,46.0,22.0,30.00,WNW,295,0.0,-999.0,38,-99.99,,,-99.99,,2013-03-14 13:12:00,
2013-03-14 06:21:00,44.0,21.0,30.01,WNW,295,0.0,-999.0,40,-99.99,,,-99.99,,2013-03-14 13:21:00,
2013-03-14 06:32:00,45.0,23.0,30.01,WNW,295,0.0,-999.0,42,-99.99,,,-99.99,,2013-03-14 13:32:00,
2013-03-14 06:42:00,45.0,23.0,30.01,WNW,295,0.0,-999.0,42,-99.99,,,-99.99,,2013-03-14 13:42:00,
2013-03-14 06:52:00,43.0,24.0,30.02,WNW,295,0.0,-999.0,46,-99.99,,,-99.99,,2013-03-14 13:52:00,
2013-03-14 07:02:00,43.0,24.0,30.02,WNW,295,0.0,-999.0,46,-99.99,,,-99.99,,2013-03-14 14:02:00,
2013-03-14 07:12:00,43.0,24.0,30.02,WNW,295,0.0,-999.0,46,-99.99,,,-99.99,,2013-03-14 14:12:00,
2013-03-14 07:22:00,43.0,25.0,30.03,WNW,295,0.0,-999.0,48,-99.99,,,-99.99,,2013-03-14 14:22:00,
2013-03-14 07:32:00,45.0,27.0,30.03,WNW,295,0.0,-999.0,48,-99.99,,,-99.99,,2013-03-14 14:32:00,
2013-03-14 07:42:00,45.0,27.0,30.03,WNW,295,0.0,-999.0,48,-99.99,,,-99.99,,2013-03-14 14:42:00,
2013-03-14 07:52:00,49.0,27.0,30.04,WNW,295,0.0,-999.0,43,-99.99,,,-99.99,,2013-03-14 14:52:00,
2013-03-14 08:02:00,55.0,23.0,30.04,WNW,295,0.0,-999.0,28,-99.99,,,-99.99,,2013-03-14 15:02:00,
2013-03-14 08:12:00,55.0,23.0,30.04,WNW,295,0.0,-999.0,28,-99.99,,,-99.99,,2013-03-14 15:12:00,
2013-03-14 08:22:00,59.0,23.0,30.04,WNW,295,0.0,-999.0,25,-99.99,,,-99.99,,2013-03-14 15:22:00,
2013-03-14 08:32:00,61.0,20.0,30.04,WNW,295,0.0,-999.0,20,-99.99,,,-99.99,,2013-03-14 15:32:00,
2013-03-14 08:42:00,61.0,20.0,30.04,WNW,295,0.0,-999.0,20,-99.99,,,-99.99,,2013-03-14 15:42:00,
2013-03-14 08:52:00,63.0,20.0,30.05,WNW,295,0.0,-999.0,19,-99.99,,,-99.99,,2013-03-14 15:52:00,
2013-03-14 09:02:00,65.0,22.0,30.05,WNW,295,0.0,-999.0,19,-99.99,,,-99.99,,2013-03-14 16:02:00,
2013-03-14 09:12:00,65.0,22.0,30.05,WNW,295,0.0,-999.0,19,-99.99,,,-99.99,,2013-03-14 16:12:00,
2013-03-14 09:22:00,66.0,20.0,30.05,WNW,295,0.0,-999.0,17,-99.99,,,-99.99,,2013-03-14 16:22:00,
2013-03-14 09:32:00,68.0,17.0,30.05,NE,36,1.0,-999.0,14,-99.99,,,-99.99,,2013-03-14 16:32:00,
2013-03-14 09:42:00,68.0,17.0,30.05,NE,36,1.0,-999.0,14,-99.99,,,-99.99,,2013-03-14 16:42:00,
2013-03-14 09:52:00,69.0,18.0,30.05,NE,36,0.0,-999.0,14,-99.99,,,-99.99,,2013-03-14 16:52:00,
2013-03-14 10:01:00,70.0,17.0,30.05,NE,36,1.0,-999.0,13,-99.99,,,-99.99,,2013-03-14 17:01:00,
2013-03-14 10:12:00,70.0,17.0,30.05,NE,36,1.0,-999.0,13,-99.99,,,-99.99,,2013-03-14 17:12:00,
2013-03-14 10:22:00,70.0,17.0,30.05,NE,36,1.0,-999.0,13,-99.99,,,-99.99,,2013-03-14 17:22:00,
2013-03-14 10:32:00,71.0,16.0,30.06,NE,40,0.0,-999.0,12,-99.99,,,-99.99,,2013-03-14 17:32:00,
2013-03-14 10:42:00,71.0,16.0,30.06,NE,40,0.0,-999.0,12,-99.99,,,-99.99,,2013-03-14 17:42:00,
2013-03-14 10:52:00,73.0,15.0,30.06,NE,40,0.0,-999.0,11,-99.99,,,-99.99,,2013-03-14 17:52:00,
2013-03-14 11:02:00,74.0,16.0,30.06,NE,40,1.0,-999.0,11,-99.99,,,-99.99,,2013-03-14 18:02:00,
2013-03-14 11:12:00,74.0,16.0,30.06,NE,40,1.0,-999.0,11,-99.99,,,-99.99,,2013-03-14 18:12:00,
2013-03-14 11:22:00,74.0,16.0,30.05,NE,42,1.0,-999.0,11,-99.99,,,-99.99,,2013-03-14 18:22:00,
2013-03-14 11:32:00,74.0,14.0,30.06,North,9,1.0,-999.0,10,-99.99,,,-99.99,,2013-03-14 18:32:00,
2013-03-14 11:42:00,74.0,14.0,30.06,North,9,1.0,-999.0,10,-99.99,,,-99.99,,2013-03-14 18:42:00,
2013-03-14 11:52:00,75.0,15.0,30.05,NNE,13,1.0,-999.0,10,-99.99,,,-99.99,,2013-03-14 18:52:00,
2013-03-14 12:02:00,75.0,15.0,30.05,NNE,13,1.0,-999.0,10,-99.99,,,-99.99,,2013-03-14 19:02:00,
2013-03-14 12:12:00,75.0,15.0,30.05,NNE,13,1.0,-999.0,10,-99.99,,,-99.99,,2013-03-14 19:12:00,
2013-03-14 12:22:00,75.0,15.0,30.05,NNE,13,1.0,-999.0,10,-99.99,,,-99.99,,2013-03-14 19:22:00,
2013-03-14 12:32:00,77.0,14.0,30.03,East,89,1.0,-999.0,9,-99.99,,,-99.99,,2013-03-14 19:32:00,
2013-03-14 12:42:00,77.0,14.0,30.03,East,89,1.0,-999.0,9,-99.99,,,-99.99,,2013-03-14 19:42:00,
2013-03-14 12:52:00,78.0,15.0,30.02,East,81,1.0,-999.0,9,-99.99,,,-99.99,,2013-03-14 19:52:00,
2013-03-14 13:02:00,78.0,15.0,30.01,ENE,66,1.0,-999.0,9,-99.99,,,-99.99,,2013-03-14 20:02:00,
2013-03-14 13:11:00,78.0,15.0,30.01,ENE,66,1.0,-999.0,9,-99.99,,,-99.99,,2013-03-14 20:11:00,
2013-03-14 13:21:00,78.0,12.0,30.01,East,85,1.0,-999.0,8,-99.99,,,-99.99,,2013-03-14 20:21:00,
2013-03-14 13:31:00,78.0,12.0,30.01,East,85,1.0,-999.0,8,-99.99,,,-99.99,,2013-03-14 20:31:00,
2013-03-14 13:42:00,78.0,12.0,30.01,East,85,1.0,-999.0,8,-99.99,,,-99.99,,2013-03-14 20:42:00,
2013-03-14 13:51:00,78.0,12.0,29.99,NE,50,1.0,-999.0,8,-99.99,,,-99.99,,2013-03-14 20:51:00,
2013-03-14 14:02:00,80.0,13.0,29.97,SSW,200,1.0,-999.0,8,-99.99,,,-99.99,,2013-03-14 21:02:00,
2013-03-14 14:12:00,80.0,13.0,29.97,SSW,200,1.0,-999.0,8,-99.99,,,-99.99,,2013-03-14 21:12:00,
2013-03-14 14:21:00,80.0,10.0,29.97,NE,52,1.0,-999.0,7,-99.99,,,-99.99,,2013-03-14 21:21:00,
2013-03-14 14:32:00,80.0,16.0,29.96,NE,55,0.0,-999.0,9,-99.99,,,-99.99,,2013-03-14 21:32:00,
2013-03-14 14:43:00,80.0,16.0,29.96,NE,55,0.0,-999.0,9,-99.99,,,-99.99,,2013-03-14 21:43:00,
2013-03-14 14:52:00,80.0,13.0,29.96,NE,41,1.0,-999.0,8,-99.99,,,-99.99,,2013-03-14 21:52:00,
2013-03-14 15:03:00,81.0,11.0,29.95,NE,41,2.0,-999.0,7,-99.99,,,-99.99,,2013-03-14 22:03:00,
2013-03-14 15:12:00,81.0,11.0,29.95,NE,41,2.0,-999.0,7,-99.99,,,-99.99,,2013-03-14 22:12:00,
2013-03-14 15:23:00,79.0,10.0,29.95,East,100,1.0,-999.0,7,-99.99,,,-99.99,,2013-03-14 22:23:00,
2013-03-14 15:32:00,79.0,10.0,29.95,East,100,1.0,-999.0,7,-99.99,,,-99.99,,2013-03-14 22:32:00,
2013-03-14 15:42:00,79.0,10.0,29.95,East,100,1.0,-999.0,7,-99.99,,,-99.99,,2013-03-14 22:42:00,
2013-03-14 15:52:00,81.0,11.0,29.94,SSE,157,1.0,-999.0,7,-99.99,,,-99.99,,2013-03-14 22:52:00,
2013-03-14 16:02:00,82.0,15.0,29.94,East,92,1.0,-999.0,8,-99.99,,,-99.99,,2013-03-14 23:02:00,
2013-03-14 16:12:00,82.0,15.0,29.94,East,92,1.0,-999.0,8,-99.99,,,-99.99,,2013-03-14 23:12:00,
2013-03-14 16:21:00,80.0,10.0,29.93,SSW,202,1.0,-999.0,7,-99.99,,,-99.99,,2013-03-14 23:21:00,
2013-03-14 16:32:00,81.0,14.0,29.93,South,175,1.0,-999.0,8,-99.99,,,-99.99,,2013-03-14 23:32:00,
2013-03-14 16:42:00,81.0,14.0,29.93,South,175,1.0,-999.0,8,-99.99,,,-99.99,,2013-03-14 23:42:00,
2013-03-14 16:52:00,81.0,11.0,29.93,SSE,161,1.0,-999.0,7,-99.99,,,-99.99,,2013-03-14 23:52:00,
2013-03-14 17:02:00,80.0,13.0,29.93,SSE,153,1.0,-999.0,8,-99.99,,,-99.99,,2013-03-15 00:02:00,
2013-03-14 17:12:00,79.0,13.0,29.93,SSE,155,1.0,-999.0,8,-99.99,,,-99.99,,2013-03-15 00:12:00,
2013-03-14 17:22:00,79.0,13.0,29.93,SSE,155,1.0,-999.0,8,-99.99,,,-99.99,,2013-03-15 00:22:00,
2013-03-14 17:32:00,80.0,16.0,29.92,SSE,157,0.0,-999.0,9,-99.99,,,-99.99,,2013-03-15 00:32:00,
2013-03-14 17:42:00,80.0,16.0,29.92,SSE,157,0.0,-999.0,9,-99.99,,,-99.99,,2013-03-15 00:42:00,
2013-03-14 17:51:00,78.0,15.0,29.93,SSE,158,2.0,-999.0,9,-99.99,,,-99.99,,2013-03-15 00:51:00,
2013-03-14 18:02:00,77.0,14.0,29.93,SSE,158,0.0,-999.0,9,-99.99,,,-99.99,,2013-03-15 01:02:00,
2013-03-14 18:11:00,77.0,14.0,29.93,SSE,158,0.0,-999.0,9,-99.99,,,-99.99,,2013-03-15 01:11:00,
2013-03-14 18:21:00,76.0,16.0,29.93,SSE,158,0.0,-999.0,10,-99.99,,,-99.99,,2013-03-15 01:21:00,
2013-03-14 18:32:00,72.0,18.0,29.93,SSE,158,0.0,-999.0,13,-99.99,,,-99.99,,2013-03-15 01:32:00,
2013-03-14 18:42:00,72.0,18.0,29.93,SSE,158,0.0,-999.0,13,-99.99,,,-99.99,,2013-03-15 01:42:00,
2013-03-14 18:52:00,68.0,19.0,29.93,SSE,158,0.0,-999.0,15,-99.99,,,-99.99,,2013-03-15 01:52:00,
2013-03-14 19:02:00,66.0,19.0,29.93,SSE,157,0.0,-999.0,16,-99.99,,,-99.99,,2013-03-15 02:02:00,
2013-03-14 19:22:00,65.0,18.0,29.93,SSE,158,0.0,-999.0,16,-99.99,,,-99.99,,2013-03-15 02:22:00,
2013-03-14 19:32:00,65.0,18.0,29.93,SSE,158,0.0,-999.0,16,-99.99,,,-99.99,,2013-03-15 02:32:00,
2013-03-14 19:42:00,65.0,18.0,29.93,SSE,158,0.0,-999.0,16,-99.99,,,-99.99,,2013-03-15 02:42:00,
2013-03-14 19:51:00,64.0,17.0,29.93,SSE,158,0.0,-999.0,16,-99.99,,,-99.99,,2013-03-15 02:51:00,
2013-03-14 20:01:00,63.0,18.0,29.93,SSE,158,0.0,-999.0,17,-99.99,,,-99.99,,2013-03-15 03:01:00,
2013-03-14 20:11:00,63.0,18.0,29.93,SSE,158,0.0,-999.0,17,-99.99,,,-99.99,,2013-03-15 03:11:00,
2013-03-14 20:22:00,62.0,17.0,29.94,SSE,158,0.0,-999.0,17,-99.99,,,-99.99,,2013-03-15 03:22:00,
2013-03-14 20:32:00,61.0,17.0,29.94,SSE,158,0.0,-999.0,18,-99.99,,,-99.99,,2013-03-15 03:32:00,
2013-03-14 20:42:00,61.0,17.0,29.94,SSE,158,0.0,-999.0,18,-99.99,,,-99.99,,2013-03-15 03:42:00,
2013-03-14 20:52:00,60.0,18.0,29.94,SSE,157,0.0,-999.0,19,-99.99,,,-99.99,,2013-03-15 03:52:00,
2013-03-14 21:03:00,59.0,19.0,29.95,SSE,158,0.0,-999.0,21,-99.99,,,-99.99,,2013-03-15 04:03:00,
2013-03-14 21:12:00,59.0,19.0,29.95,SSE,158,0.0,-999.0,21,-99.99,,,-99.99,,2013-03-15 04:12:00,
2013-03-14 21:22:00,59.0,19.0,29.95,SSE,157,0.0,-999.0,21,-99.99,,,-99.99,,2013-03-15 04:22:00,
2013-03-14 21:32:00,58.0,18.0,29.95,SSE,158,0.0,-999.0,21,-99.99,,,-99.99,,2013-03-15 04:32:00,
2013-03-14 21:42:00,58.0,18.0,29.95,SSE,158,0.0,-999.0,21,-99.99,,,-99.99,,2013-03-15 04:42:00,
2013-03-14 21:52:00,58.0,18.0,29.95,SSE,158,0.0,-999.0,21,-99.99,,,-99.99,,2013-03-15 04:52:00,
2013-03-14 22:02:00,57.0,21.0,29.96,SSE,158,0.0,-999.0,24,-99.99,,,-99.99,,2013-03-15 05:02:00,
2013-03-14 22:12:00,57.0,21.0,29.96,SSE,158,0.0,-999.0,24,-99.99,,,-99.99,,2013-03-15 05:12:00,
2013-03-14 22:22:00,57.0,20.0,29.96,SSE,157,0.0,-999.0,23,-99.99,,,-99.99,,2013-03-15 05:22:00,
2013-03-14 22:32:00,56.0,20.0,29.96,SSE,157,0.0,-999.0,24,-99.99,,,-99.99,,2013-03-15 05:32:00,
2013-03-14 22:42:00,56.0,20.0,29.96,SSE,157,0.0,-999.0,24,-99.99,,,-99.99,,2013-03-15 05:42:00,
2013-03-14 22:52:00,54.0,18.0,29.97,SSE,158,0.0,-999.0,24,-99.99,,,-99.99,,2013-03-15 05:52:00,
2013-03-14 23:02:00,54.0,21.0,29.97,SSE,158,0.0,-999.0,27,-99.99,,,-99.99,,2013-03-15 06:02:00,
2013-03-14 23:12:00,54.0,21.0,29.97,SSE,158,0.0,-999.0,27,-99.99,,,-99.99,,2013-03-15 06:12:00,
2013-03-14 23:22:00,53.0,19.0,29.97,SSE,158,1.0,-999.0,26,-99.99,,,-99.99,,2013-03-15 06:22:00,
2013-03-14 23:32:00,53.0,19.0,29.97,SSE,159,1.0,-999.0,26,-99.99,,,-99.99,,2013-03-15 06:32:00,
2013-03-14 23:42:00,53.0,19.0,29.97,SSE,159,1.0,-999.0,26,-99.99,,,-99.99,,2013-03-15 06:42:00,
2013-03-14 23:52:00,55.0,19.0,29.97,SSE,161,2.0,-999.0,24,-99.99,,,-99.99,,2013-03-15 06:52:00,